CW1335 Weather Reports


time (UTC)temp
C
wind
direction
speed
KPH
gust
KPH
rain 1hr
cm
rain 24hr
cm
rain mn
cm
humidity
%
barometer
mb
20260505120019 5 241 3.2 4.8 0.00 0.03 0.00 68 1004.8
20260505114603 4 287 0.0 3.2 0.00 0.03 0.00 75 1004.5
20260505113050 3 287 0.0 0.0 0.00 0.03 0.00 77 1004.6
20260505111519 2 287 0.0 0.0 0.00 0.03 0.00 77 1004.7
20260505110121 2 287 0.0 1.6 0.00 0.03 0.00 76 1004.5
20260505101604 4 287 0.0 3.2 0.00 0.03 0.00 71 1003.9
20260505100046 4 287 0.0 1.6 0.00 0.03 0.00 71 1003.8
20260505094503 5 287 0.0 3.2 0.00 0.03 0.00 68 1003.8
20260505093105 5 287 0.0 3.2 0.00 0.03 0.00 64 1003.9
20260505091610 5 263 0.0 3.2 0.00 0.03 0.00 65 1003.6
20260505090012 5 263 1.6 4.8 0.00 0.03 0.00 63 1003.7
20260505084616 6 281 1.6 3.2 0.00 0.03 0.00 60 1003.0
20260505083102 6 277 1.6 4.8 0.00 0.03 0.00 59 1002.6
20260505081509 6 276 1.6 4.8 0.00 0.03 0.00 58 1002.2
20260505080112 7 268 1.6 8.0 0.00 0.03 0.00 55 1002.0
20260505074522 7 288 1.6 6.4 0.00 0.03 0.00 55 1001.8
20260505073008 8 313 3.2 12.9 0.00 0.03 0.00 51 1001.8
20260505071616 8 346 4.8 17.7 0.00 0.03 0.00 51 1001.9
20260505070040 8 282 6.4 17.7 0.00 0.03 0.00 51 1001.5
20260505064504 8 288 8.0 16.1 0.00 0.03 0.00 52 1001.3
20260505063107 9 278 4.8 19.3 0.00 0.03 0.00 53 1001.4
20260505061550 9 300 3.2 12.9 0.00 0.03 0.00 54 1001.2
20260505060020 10 302 4.8 16.1 0.00 0.03 0.00 52 1001.0
20260505054610 10 348 3.2 12.9 0.00 0.03 0.00 52 1000.8
20260505053048 10 288 3.2 8.0 0.00 0.03 0.00 52 1000.8
20260505051514 11 303 3.2 14.5 0.00 0.03 0.00 51 1000.2
20260505050114 11 322 3.2 11.3 0.00 0.03 0.00 52 999.7
20260505041604 12 360 4.8 14.5 0.00 0.03 0.03 46 999.1
20260505040023 12 272 6.4 14.5 0.00 0.03 0.03 45 999.1
20260505034612 13 264 4.8 12.9 0.00 0.03 0.03 44 998.6
20260505033055 13 287 6.4 14.5 0.00 0.03 0.03 41 998.5
20260505031517 13 275 4.8 16.1 0.00 0.03 0.03 40 998.1
20260505030133 14 279 4.8 14.5 0.00 0.03 0.03 41 997.9
20260505024556 14 263 3.2 11.3 0.00 0.03 0.03 44 997.0
20260505023035 15 296 4.8 14.5 0.00 0.03 0.03 44 997.2
20260505021617 15 302 6.4 17.7 0.00 0.03 0.03 42 996.9
20260505014529 16 278 9.7 20.9 0.00 0.03 0.03 41 995.9
20260505013113 16 293 8.0 16.1 0.00 0.03 0.03 43 995.7
20260505011559 17 288 6.4 16.1 0.00 0.03 0.03 45 995.3
20260505010018 17 280 4.8 8.0 0.00 0.03 0.03 43 994.9
20260505004610 18 287 4.8 11.3 0.00 0.03 0.03 42 994.5
20260505003059 18 309 6.4 12.9 0.00 0.03 0.03 39 994.4
20260505001520 19 293 4.8 12.9 0.00 0.03 0.03 39 994.3
20260505000120 20 279 9.7 17.7 0.00 0.03 0.03 38 994.0
20260504234552 21 347 4.8 9.7 0.03 0.03 0.03 43 993.7
20260504233037 21 287 4.8 9.7 0.03 0.03 0.03 44 993.6
20260504231501 21 308 6.4 17.7 0.03 0.03 0.03 48 993.6
20260504230105 22 261 11.3 20.9 0.03 0.03 0.03 47 993.5
20260504224538 23 278 14.5 24.1 0.00 0.00 0.00 38 993.5
20260504223003 23 267 14.5 27.4 0.00 0.00 0.00 36 993.1
20260504221604 23 236 16.1 35.4 0.00 0.00 0.00 36 993.2
20260504220048 25 240 19.3 32.2 0.00 0.00 0.00 33 993.1
20260504214505 25 198 16.1 33.8 0.00 0.00 0.00 36 993.2
20260504213110 24 266 16.1 29.0 0.00 0.00 0.00 35 993.3
20260504211634 24 232 17.7 33.8 0.00 0.00 0.00 36 993.4
20260504210018 25 240 19.3 32.2 0.00 0.00 0.00 36 993.5
20260504204608 24 253 17.7 37.0 0.00 0.00 0.00 36 993.9
20260504203052 24 225 22.5 40.2 0.00 0.00 0.00 34 993.9
20260504201540 24 249 24.1 43.5 0.00 0.00 0.00 36 994.1
20260504200005 24 261 20.9 41.8 0.00 0.00 0.00 34 994.3
20260504194557 23 246 24.1 35.4 0.00 0.00 0.00 34 994.4
20260504193015 23 216 22.5 38.6 0.00 0.00 0.00 33 994.5
20260504191618 24 221 22.5 41.8 0.00 0.00 0.00 34 994.6
20260504190110 25 234 20.9 38.6 0.00 0.00 0.00 33 994.6
20260504184512 24 244 17.7 38.6 0.00 0.00 0.00 35 994.7
20260504183116 24 275 17.7 33.8 0.00 0.00 0.00 36 994.6
20260504181602 23 269 17.7 32.2 0.00 0.00 0.00 33 994.8
20260504180018 23 225 17.7 40.2 0.00 0.00 0.00 37 994.9
20260504174611 23 271 19.3 37.0 0.00 0.00 0.00 35 995.0
20260504173053 23 202 20.9 41.8 0.00 0.00 0.00 33 995.2
20260504171510 23 254 19.3 40.2 0.00 0.00 0.00 35 995.5
20260504170111 22 209 19.3 35.4 0.00 0.00 0.00 34 995.7